Regional Weather Roundup
Issued by NWS Sterling, VA

Home | Current Version | Previous Version | Graphics & Text | Print | Product List | Glossary On
Versions: 1 2 3 4 5 6 7 8 9 10 11 12 13 14 15 16 17 18 19 20 21 22 23 24 25 26 27 28 29 30 31 32 33 34 35 36 37 38 39 40 41 42 43 44 45 46 47 48 49 50
000
ASUS41 KLWX 231611
RWRLWX

REGIONAL WEATHER ROUNDUP
NATIONAL WEATHER SERVICE BALTIMORE MD/WASHINGTON DC
1200 PM EDT SAT JUL 23 2016

Note: "FAIR" indicates few or no clouds below 12,000 feet
with no significant weather and/or obstructions to visibility.
 TC=TEMPERATURE CELSIUS

 * =Non NWS site. Station does not report precipitation (e.g. rain,
    snow, etc.), thunder, or fog.

DCZ001-MDZ009-015-VAZ040>042-051-053>054-231700-
WASHINGTON METRO

CITY           SKY/WX    TMP DP  RH WIND       PRES   REMARKS
WASHINGTON NAT FAIR      94  74  52 N12       29.94F HX 104
DULLES         FAIR      93  71  48 NW9       29.96F HX 100
ANDREWS AFB    SUNNY     90  72  55 NW6       29.94F HX  97
FT BELVOIR     FAIR      94  70  46 VRB6      29.94F HX  99
QUANTICO       FAIR      93  72  50 CALM      29.95F HX 101
COLLEGE PARK*  FAIR      90  72  55 NW6       29.94S HX  96
LEESBURG*      FAIR      91  77  62 W10G18    29.98S HX 105
GAITHERSBURG*  SUNNY     90  72  55 NW7       30.00S HX  96

$$

MDZ006>007-011-014-231700-
BALTIMORE METRO

CITY           SKY/WX    TMP DP  RH WIND       PRES   REMARKS
BWI AIRPORT    MOSUNNY   93  71  48 W8        29.93F HX 100
MD SCIENCE CTR   N/A     94  71  47 MISG      29.93S HX 101
MARTIN STATE   MOSUNNY   91  75  59 W7        29.93F HX 102
ANNAPOLIS      SUNNY     90  73  57 NW8       29.93F HX  98
FORT MEADE*    SUNNY     90  73  58 W5        29.96F HX  98

$$

MDZ012-015-019>023-231700-
MARYLAND EASTERN SHORE

CITY           SKY/WX    TMP DP  RH WIND       PRES   REMARKS
OCEAN CITY     SUNNY     88  76  67 VRB6      29.92F HX  99
SALISBURY      SUNNY     92  73  53 N6        29.93F HX 100
BAY BRIDGE AP* SUNNY     90  75  62 NW5       29.94S HX 100
CAMBRIDGE*     SUNNY     90  72  55 W6        29.93F HX  96
EASTON*        SUNNY     93  79  62 NW7       29.97F HX 110

$$

MDZ017>025-231700-
SOUTHERN MARYLAND

CITY           SKY/WX    TMP DP  RH WIND       PRES   REMARKS
PATUXENT RIVER MOSUNNY   93  69  45 CALM      29.94F HX  98
ST INIGOES     SUNNY     91  76  61 SW8       29.93F HX 103
LEONARDTOWN*   SUNNY     93  66  40 NW3       29.96S HX  96

$$

MDZ003>005-231700-
NORTH CENTRAL MARYLAND

CITY           SKY/WX    TMP DP  RH WIND       PRES   REMARKS
FREDERICK*     MOSUNNY   90  73  58 MISG      29.99F HX  98
HAGERSTOWN APT CLOUDY    87  70  56 W7        29.98F HX  92

$$

MDZ501>502-231700-
WESTERN MARYLAND

CITY           SKY/WX    TMP DP  RH WIND       PRES   REMARKS
OAKLAND*       MOSUNNY   77  68  73 NW7       30.14S
CUMBERLAND*    PTSUNNY   86  72  62 CALM      30.03F HX  92

$$

VAZ025>031-231700-
SHENANDOAH VALLEY

CITY           SKY/WX    TMP DP  RH WIND       PRES   REMARKS
WINCHESTER*    FAIR      90  70  51 NW7       29.99S HX  95
FRONT ROYAL*   FAIR      88  70  55 SW5       29.99S HX  92
LURAY*         FAIR      88  68  51 CALM      30.02S HX  91
NEW MARKET*    FAIR     N/A N/A N/A CALM      30.00F
STAUNTON*      FAIR      85  68  56 CALM      30.06S
WAYNESBORO*    FAIR      85  65  49 CALM      30.06F

$$

WVZ021-048>050-054>055-231700-
EASTERN WEST VIRGINIA PANHANDLE

CITY           SKY/WX    TMP DP  RH WIND       PRES   REMARKS
MARTINSBURG    PTSUNNY   89  71  55 W9        29.98S HX  95
PETERSBURG*    FAIR      91  70  50 CALM      30.01F HX  97

$$

VAZ036>039-050-231700-
CENTRAL FOOTHILLS

CITY           SKY/WX    TMP DP  RH WIND       PRES   REMARKS
CHARLOTTESVILL FAIR      94  67  41 SW5       29.99F HX  97
CULPEPER*      FAIR      90  72  54 W5        29.98S HX  97
ORANGE*          N/A     91  70  49 CALM      30.00F HX  97
GORDONSVILLE*  FAIR      91  73  57 CALM      29.98F HX  99
WARRENTON*     FAIR      94  63  35 NW5       29.97S HX  94

$$

VAZ055>057-231700-
NORTH AND CENTRAL PIEDMONT

CITY           SKY/WX    TMP DP  RH WIND       PRES   REMARKS
FREDERICKSBRG*   N/A     92  71  48 CALM      29.95F HX  98
STAFFORD*      FAIR      92  67  43 W6        30.00F HX  95

$$

NCZ024-NYZ072-PAZ021-071-VAZ022-071-231700-
OTHER REGIONAL OBSERVATIONS

CITY           SKY/WX    TMP DP  RH WIND       PRES   REMARKS
NEW YORK CITY  SUNNY     90  61  37 VRB6G17   29.88S HX  90
PHILADELPHIA   MOSUNNY   90  70  51 W12       29.91S HX  95
PITTSBURGH     MOSUNNY   87  69  54 VRB5      30.01F HX  91
ROANOKE        FAIR      90  67  46 VRB7      30.06F HX  93
RICHMOND       FAIR      89  71  55 SE5       29.97S HX  95
RALEIGH        MOSUNNY   89  75  63 VRB3      30.01S HX  99

$$

ANZ530>537-231700-
MARINE OBSERVATIONS

STATION/POSITION TIME  TEMP    WIND        PRES
                       AIR SEA DIR/SP/G
                 (UTC) (F)     (DEG/KT/KT) (MB)
THOMAS PT LIGHT  1600   87 82  280/  6/  7 1015.0F
BALT KEY BRIDGE  1548   88     290/  6/  7 1013.4F
COVE POINT       1548   85      90/  4/  4 1014.4F
LEWISETTA        1548   89 85  130/  2/  3 1013.6F
SOLOMONS ISLAND  1548   91 83  270/  6/  8   N/A
PINEY POINT      1548          290/  5/  6   N/A

$$




USA.gov is the U.S. government's official web portal to all federal, state and local government web resources and services.